Location: Heßheim
(49.5453°N, 8.3082°E)
Time: 11:29:30
(UTC+00:00)

Daily predictions for brighter satellites

Satellite Brightness Start Highest point End
(mag) Time Altitude Azimuth Time Altitude Azimuth Time Altitude Azimuth
Cosmos 2360 Rocket 2.2 18:38:45 10° SSW 18:44:16 61° ESE 18:49:51 10° NE
COSMO-SKYMED 1 3.9 18:42:39 10° N 18:46:34 44° WNW 18:50:29 10° SW
Okean-O 4.4 18:44:18 10° E 18:46:53 16° ENE 18:49:28 10° NNE
BlueWalker 3 4.0 18:45:24 10° W 18:48:05 20° SW 18:50:45 10° S
Cosmos 2184 Rocket 4.1 18:45:55 10° S 18:52:11 63° E 18:58:28 10° NNE
Cosmos 2322 Rocket 2.2 18:46:36 10° SSW 18:52:11 75° ESE 18:57:48 10° NNE
Cosmos 1666 Rocket 3.5 18:50:15 10° S 18:54:32 85° E 18:58:51 10° N
Cosmos 1633 Rocket 3.0 18:51:15 10° S 18:55:37 73° E 18:59:58 10° NNE
Cosmos 1340 Rocket 2.6 18:52:37 10° S 18:56:16 90° ESE 18:59:57 10° NNE
ADEOS 4.2 18:53:03 10° SE 18:57:49 38° ENE 19:02:38 10° N
Feng Yun 1-1 Rocket 4.5 18:53:44 10° SE 18:59:11 54° ENE 19:04:31 10° N
BREEZE-M DEB (TANK) 2.8 18:57:25 10° SW 18:59:26 29° SSE 19:02:04 10° E
SL-16 R/B 2.9 18:54:34 10° SW 19:00:10 61° WNW 19:05:49 10° NNE
Terra 2.5 18:56:25 10° SE 19:00:43 37° ENE 19:05:02 10° N
ATLAS 5 CENTAUR R/B 3.5 18:59:26 10° WNW 19:01:39 18° NNW 19:04:03 10° NNE
CSL-04 Debris 4.1 18:57:57 10° SSE 19:03:17 78° ENE 19:08:42 10° NNW
Meteor 1-22 Rocket 4.4 18:59:03 10° SSW 19:04:41 83° WNW 19:10:36 10° N
Cosmos 1898 Rocket 3.5 19:00:13 10° S 19:05:22 62° ESE 19:10:31 10° NNE
CZ-4 R/B 1.2 19:01:46 10° SSE 19:05:33 66° ENE 19:09:17 10° N
Resurs 01 Rocket 3.7 19:03:52 10° SSW 19:07:41 29° W 19:11:30 10° NW
SL-08 R/B 4.3 19:05:17 10° NE 19:09:25 27° E 19:13:32 10° SSE
Okean O Rocket 2.9 19:06:43 12° ESE 19:09:53 25° ENE 19:13:25 10° N
Meteor 1-24 Rocket 4.0 19:08:25 10° NNW 19:13:49 70° W 19:19:22 10° S
Cosmos 2333 4.1 19:09:18 10° SSW 19:14:53 83° ESE 19:20:31 10° NNE
Cosmos 372 Rocket 4.1 19:11:00 10° SSW 19:16:14 84° WNW 19:21:30 10° NNE
Cosmos 1680 Rocket 3.7 19:12:46 10° NNW 19:17:54 54° ENE 19:22:22 13° SE
Cosmos 2219 Rocket 2.1 19:15:11 10° SSW 19:20:43 72° ESE 19:26:19 10° NNE
SPOT 5 3.2 19:16:14 10° S 19:20:57 63° WSW 19:25:29 10° NNW
CZ-4B R/B 4.1 19:19:43 10° S 19:23:16 62° W 19:26:58 10° NNW
Cosmos 2074 Rocket 4.2 19:17:41 10° SSW 19:23:55 79° W 19:30:13 10° N
Meteor 1-31 Rocket 3.1 19:22:27 10° S 19:25:56 59° W 19:29:26 10° NNW
Cosmos 1937 Rocket 3.5 19:21:39 10° SSW 19:26:54 70° ESE 19:32:11 10° NNE
Cosmos 1339 Rocket 4.5 19:23:35 10° N 19:29:57 86° E 19:36:09 10° S
SL-24 R/B - RUBIN 2 3.6 19:27:42 10° NW 19:32:06 71° NE 19:35:18 19° SE
Cosmos 923 Rocket 4.0 19:28:34 10° NNW 19:33:55 87° WSW 19:38:51 12° SSE
USA 186 2.7 19:34:28 18° NE 19:34:28 18° NE 19:35:42 10° NNE
Cosmos 2369 Rocket 4.5 19:32:20 10° N 19:34:18 12° NNE 19:36:16 10° NE
USA 234 3.4 19:27:51 10° ENE 19:34:26 84° NNW 19:41:00 10° WSW
Cosmos 2112 Rocket 4.1 19:30:18 10° NNW 19:35:30 63° ENE 19:39:16 18° SE
SL-8 Rocket 4.3 19:30:21 10° SSE 19:36:12 45° E 19:42:07 10° NNE
NOSS 2-3 (E) 4.2 19:32:36 10° NW 19:37:31 80° NE 19:42:20 19° SE
COSMOS 2428 3.3 19:33:00 10° S 19:38:08 36° ESE 19:43:18 10° NE
USA 238 DEB 4.5 19:31:58 10° NW 19:38:51 47° NNE 19:44:50 17° ESE
PAYLOAD B 4.3 19:34:44 10° SSE 19:40:14 82° WSW 19:45:47 10° NNW
Cosmos 1953 4.1 19:37:08 10° SW 19:40:22 31° WNW 19:43:38 10° N
CZ-4B R/B 3.2 19:35:13 10° SSE 19:40:45 85° ENE 19:46:25 10° NNW
NOSS 2-3 (C) 4.3 19:36:10 10° NW 19:40:58 68° NE 19:45:27 20° SE
MetOp-B 4.1 19:35:47 10° SSE 19:41:09 86° ENE 19:46:33 10° NNW
CZ-4B DEB 4.4 19:35:59 10° S 19:41:24 71° WSW 19:46:54 10° NNW
Cosmos 2278 Rocket 2.8 19:39:05 10° NNW 19:44:30 42° NE 19:47:49 21° ESE
SKYMED 3 4.2 19:41:55 10° NNE 19:45:47 62° ESE 19:49:36 10° S
Cosmos 2366 rocket 4.2 19:40:18 10° SSE 19:46:10 47° E 19:52:01 10° NNE
Ariane Rocket 4.2 19:46:48 20° E 19:48:56 26° ENE 19:53:04 10° N
Cosmos 2327 Rocket 4.4 19:43:22 10° S 19:49:29 72° E 19:55:44 10° NNE
NOSS 3-2 (C) 4.1 19:42:17 10° NW 19:49:31 79° SW 19:56:23 18° SSE
Cosmos 2333 Rocket 3.9 19:44:32 10° WSW 19:49:43 35° NW 19:54:55 10° NNE
Cosmos 1703 Rocket 4.2 19:49:44 10° NNW 19:53:57 53° W 19:58:07 10° S
Geosat 4.0 19:49:23 10° NNE 19:54:25 83° WNW 19:59:25 10° SW
USA 32 4.4 19:53:57 23° SE 19:56:46 42° E 20:01:41 10° NNE
BREEZE-M DEB (TANK) 2.0 19:54:23 10° W 19:56:55 89° S 19:59:32 23° E
Spot 2 Rocket 3.5 19:53:55 22° SSE 19:57:08 67° ENE 20:02:08 10° N
Lacrosse 5 rocket 0.5 19:56:28 10° SW 19:59:38 61° SE 20:00:40 36° ENE
NOSS 2-3 (D) 4.3 19:54:52 10° NW 19:59:51 80° SW 20:03:53 24° SE
CZ-2C R/B 4.0 20:00:39 18° NE 20:00:39 18° NE 20:02:19 10° NNE
ARIANE 6 FM1 Upper Stage 3.5 19:56:59 10° WSW 20:01:00 52° NW 20:04:58 10° NE
Cosmos 1809 Rocket 4.5 19:55:03 10° N 20:01:10 65° ENE 20:05:08 23° SSE
Cosmos 1378 Rocket 4.4 19:58:24 10° N 20:02:22 32° ENE 20:03:21 29° E
ERS-1 Rocket 3.5 19:57:57 10° S 20:02:51 57° W 20:07:49 10° NNW
Cosmos 1933 Rocket 3.7 20:00:50 10° SSW 20:05:11 74° W 20:09:36 10° N
Cosmos 1943 Rocket 2.2 20:04:30 10° NNW 20:10:12 72° ENE 20:12:59 31° SE
Cosmos 2218 Rocket 3.9 20:06:05 13° S 20:11:30 66° E 20:17:36 10° NNE
YAOGAN 11 3.9 20:07:19 10° NNE 20:11:33 66° ESE 20:13:55 25° S
Meteor 1-11 4.4 20:08:51 10° N 20:14:20 54° ENE 20:16:34 33° SE
In-Cosmos 22 Rocket 4.2 20:09:56 10° NNW 20:15:17 72° W 20:19:03 19° S
Meteor 2-15 4.4 20:11:09 18° S 20:15:37 63° E 20:21:37 10° NNE
USA 59 Rocket 1.1 20:13:53 10° NNW 20:16:31 23° NE 20:17:17 22° ENE
MOS 1-B 4.3 20:14:21 23° SSE 20:18:07 85° WSW 20:23:57 10° NNW
Cosmos 1733 Rocket 3.3 20:18:21 43° ESE 20:18:56 46° E 20:23:08 10° NNE
Cosmos 192 4.5 20:18:37 34° SSE 20:20:15 49° ESE 20:25:00 10° NNE
Cosmos 1959 Rocket 4.4 20:15:53 14° S 20:21:20 74° E 20:27:40 10° NNE
SeaSat 1 3.8 20:19:54 22° ENE 20:21:43 27° NE 20:25:49 10° NNW
CZ-4B R/B 3.6 20:20:21 38° ESE 20:21:53 55° ENE 20:26:35 10° N
NOSS 3-4 (A) 4.0 20:23:13 29° E 20:23:13 29° E 20:27:06 10° NE
Okean-O 2.7 20:20:35 31° S 20:22:37 76° WSW 20:27:01 10° NNW
NOSS 3-4 (C) 4.0 20:23:46 29° E 20:23:46 29° E 20:27:36 10° NE
IRS-1C Rocket 4.4 20:20:58 35° ESE 20:22:44 50° ENE 20:27:50 10° N
Cosmos 494 Rocket 4.4 20:18:30 10° NNW 20:23:35 59° WSW 20:26:29 25° S
ATLAS 3B R/B 4.3 20:18:24 10° W 20:25:43 42° NNW 20:33:08 10° NE
Cosmos 1821 Rocket 4.0 20:22:24 26° SSE 20:25:59 62° E 20:32:13 10° NNE
Cosmos 1048 Rocket 3.9 20:22:57 10° NNW 20:28:06 81° ENE 20:29:52 42° SSE
Cosmos 2360 Rocket 4.2 20:23:46 10° WSW 20:28:39 30° NW 20:33:36 10° NNE
Timation 2 Rocket 4.0 20:27:21 10° NNW 20:33:39 80° ENE 20:36:19 38° SE
Cosmos 1869 Rocket 4.3 20:30:58 10° SSW 20:35:13 51° WNW 20:39:32 10° N
NOSS 2-1 (C) 4.5 20:34:05 10° NNW 20:36:48 25° NE 20:36:58 25° NE
Cosmos 2322 Rocket 4.5 20:32:13 10° W 20:36:49 25° NW 20:41:26 10° NNE
Terra 3.4 20:34:16 11° SSW 20:38:17 30° W 20:42:27 10° NNW
Aureole 3 3.5 20:35:01 10° N 20:39:06 80° E 20:40:03 56° SSE
CZ-4 R/B 4.2 20:38:25 10° WSW 20:39:58 12° W 20:41:31 10° WNW
Meteor 2-21 4.4 20:33:52 10° N 20:40:02 89° E 20:42:49 35° S
NOSS 2-1 (D) 4.2 20:39:41 10° NNW 20:42:32 31° NE 20:42:32 31° NE
Cosmos 2242 Rocket 3.6 20:40:51 10° NNW 20:45:23 78° W 20:46:21 54° S
Okean O Rocket 2.6 20:43:57 27° SSW 20:45:51 42° W 20:50:02 10° NNW
SL-08 R/B 4.4 20:42:33 10° N 20:47:12 46° WNW 20:51:52 10° SW
Cosmos 2237 Rocket 2.3 20:47:31 49° SE 20:48:13 52° ESE 20:53:45 10° NE
Cosmos 1980 3.7 20:47:57 48° SSE 20:49:02 57° ESE 20:54:35 10° NE
Cosmos 1025 Rocket 3.3 20:45:27 10° N 20:49:24 52° ENE 20:49:24 52° ENE
Cosmos 1125 Rocket 3.9 20:51:20 43° E 20:51:20 43° E 20:55:47 10° NE
CZ-4B R/B 2.8 20:51:35 66° W 20:51:35 66° W 20:55:04 10° NNW
ASTEX 1 3.4 20:50:47 46° S 20:52:13 77° W 20:57:09 10° N
Cosmos 2322 4.1 20:46:38 10° SW 20:52:18 65° WNW 20:58:01 10° NNE
Cosmos 2292 Rocket 3.9 20:47:38 10° N 20:53:28 65° ENE 20:54:03 59° ESE
Cosmos 1400 Rocket 3.6 21:03:02 40° NNE 21:03:02 40° NNE 21:05:27 10° NNE
IRS-P2 Rocket 4.5 21:02:29 61° SSE 21:03:25 82° ENE 21:08:41 10° NNW
SPOT 3 Rocket 3.7 21:02:10 47° SSW 21:03:34 67° WSW 21:08:46 10° NNW
Cosmos 2219 Rocket 4.3 21:00:34 10° W 21:05:12 26° NW 21:09:53 10° NNE
SL-08 R/B 4.4 21:11:04 57° SE 21:12:01 65° E 21:18:06 10° NNE
Meteor 2-21 Rocket 4.5 21:06:56 10° NNW 21:13:02 76° W 21:14:50 48° S
USA 234 4.1 21:10:52 10° ENE 21:17:07 50° N 21:23:23 10° W
Cosmos 2369 Rocket 3.1 21:14:56 10° NNW 21:20:05 36° NE 21:20:57 34° ENE
Cosmos 1674 Rocket 3.8 21:15:55 10° NNW 21:19:57 64° WNW 21:19:57 64° WNW
Cosmos 1908 Rocket 4.4 21:22:14 41° NE 21:22:14 41° NE 21:25:14 10° NNE
COSMOS 2428 3.7 21:16:44 10° SW 21:22:15 47° NW 21:27:48 10° NNE
Helios 1B rocket 4.1 21:23:49 23° NNE 21:23:49 23° NNE 21:25:28 10° N
NOSS 0 Rocket 4.2 21:18:55 10° SW 21:25:08 67° NW 21:31:23 10° NNE
Cosmos 1727 Rocket 4.4 21:20:12 10° NNW 21:26:26 59° W 21:28:33 40° SSW
Ariane Rocket 3.4 21:26:52 48° SW 21:27:32 52° W 21:32:27 10° NNW
Cosmos 2278 Rocket 3.1 21:23:18 10° NW 21:28:32 39° WSW 21:29:39 35° SW
USA 238 DEB 4.1 21:22:55 10° NW 21:30:13 65° SW 21:32:16 49° S
USA 238 4.1 21:23:04 10° NW 21:30:24 65° SW 21:32:26 49° S
Cosmos 2221 Rocket 3.9 21:26:27 10° N 21:30:11 63° NNW 21:30:11 63° NNW
Cosmos 1346 Rocket 4.1 21:29:17 10° NNW 21:31:34 35° NNW 21:31:34 35° NNW
Lacrosse 5 rocket 3.6 21:33:35 10° W 21:34:04 13° WNW 21:34:04 13° WNW
DNEPR-1 R/B 4.4 21:45:56 45° N 21:45:56 45° N 21:49:23 10° NE
Cosmos 1656 Rocket 3.6 21:45:05 10° NNW 21:50:17 77° WNW 21:50:17 77° WNW
Cosmos 1943 Rocket 3.9 21:49:10 10° NW 21:53:21 21° W 21:54:29 20° WSW
SL-16 R/B 3.1 21:58:05 37° ENE 21:58:05 37° ENE 22:01:44 10° NE
SJ 16-02 4.0 21:55:21 10° NNE 21:56:33 11° NE 21:56:47 11° NE
SeaSat 1 2.9 21:59:30 55° WNW 21:59:30 55° WNW 22:03:40 10° NW
Cosmos 2123 Rocket 4.3 21:56:55 10° NNW 22:02:59 56° W 22:03:50 52° WSW
Cosmos 1934 Rocket 4.1 22:03:44 62° SW 22:04:36 70° W 22:10:53 10° N
USA 59 Rocket 2.1 22:01:53 10° NW 22:02:49 18° WNW 22:02:49 18° WNW
Cosmos 1140 Rocket 4.2 22:04:23 10° NNW 22:08:44 45° NE 22:08:44 45° NE
Cosmos 2346 Rocket 4.4 22:03:58 10° N 22:09:59 79° ENE 22:09:59 79° ENE
NOSS 3-4 (A) 3.7 22:10:29 35° W 22:12:35 56° NW 22:18:29 10° NE
NOSS 3-4 (C) 3.7 22:11:02 36° W 22:13:04 56° NW 22:19:01 10° NE
Cosmos 2285 Rocket 3.9 22:19:16 83° ENE 22:19:16 83° ENE 22:25:27 10° NNE
Cosmos 967 Rocket 4.5 22:20:12 10° NW 22:26:42 75° NE 22:26:46 75° NE
Cosmos 1535 Rocket 4.4 22:26:51 75° WNW 22:26:51 75° WNW 22:32:56 10° N
NOSS 3-1 (C) 3.9 22:20:32 10° NW 22:27:21 75° NE 22:28:43 61° ESE
ALOS 2 4.0 22:29:40 35° N 22:29:40 35° N 22:32:21 10° N
RESURS DK-1 4.5 22:30:06 23° N 22:30:06 23° N 22:31:54 10° NNE
ATLAS 5 CENTAUR R/B 4.0 22:26:27 10° NNW 22:28:46 15° NNE 22:29:34 15° NE
Cosmos 2237 Rocket 3.7 22:29:12 19° W 22:32:32 34° NW 22:37:41 10° NNE
Cosmos 1605 Rocket 4.0 22:32:45 73° WNW 22:32:45 73° WNW 22:38:45 10° N
ARIANE 5 R/B 4.1 22:40:11 34° NNW 22:40:11 34° NNW 22:42:41 10° NNW
Cosmos 2297 4.0 22:32:38 10° NNW 22:37:29 63° NW 22:37:29 63° NW
COSMOS 2455 3.6 22:38:52 10° NNW 22:44:37 43° NE 22:45:16 42° ENE
Cosmos 2173 Rocket 4.3 22:55:45 57° NE 22:55:45 57° NE 23:00:52 10° NNE
USA 234 4.0 22:53:16 10° E 22:59:32 50° N 23:05:48 10° WNW
Cosmos 2100 Rocket 4.2 23:00:25 63° NE 23:00:25 63° NE 23:05:44 10° NNE
Cosmos 2369 Rocket 3.2 22:58:54 10° NW 23:02:43 37° WNW 23:02:43 37° WNW
NOSS 3-1 (A) 4.0 23:11:37 10° NW 23:18:29 74° NE 23:19:58 60° ESE
Cosmos 1943 3.8 23:21:35 53° NE 23:21:35 53° NE 23:25:53 10° NNE
SJ 16-02 3.3 23:31:15 10° NNW 23:33:17 27° N 23:33:17 27° N
ACS3 Solar Sail 3.2 23:35:42 10° NE 23:40:25 25° E 23:40:25 25° E
SL-16 R/B 3.4 23:39:52 33° WNW 23:40:35 34° NW 23:45:44 10° NNE
Cosmos 1802 Rocket 4.1 23:43:35 76° NNW 23:43:35 76° NNW 23:49:26 10° N
CZ-2C R/B 3.2 23:44:18 58° NNW 23:44:18 58° NNW 23:48:43 10° NNW
Meteor 2-3 Rocket 4.4 23:41:37 10° NNW 23:45:50 47° NW 23:45:50 47° NW
Cosmos 1725 Rocket 4.1 23:48:08 76° NNW 23:48:08 76° NNW 23:53:58 10° N
Cosmos 1818 4.4 23:46:03 10° NNW 23:51:18 45° NE 23:51:37 44° NE
